Location: Buckeye Ditch
(40.9104°N, 122.9517°W)
Time: 00:58:17
(UTC+00:00)

SR - Pass Details

Date: 23 May 2025
Orbit: 570 x 855 km, 66.7° (Epoch: 11 June)

Event Time Altitude Azimuth Distance (km) Brightness Sun altitude
Exits shadow 08:46:04 22° 276° (W) 1,806 ? -27.8°
Maximum altitude 08:48:23 28° 312° (NW) 1,558 ? -27.7°
Drops below altitude 10° 08:53:16 10° 10° (N) 2,472 ? -27.6°
Sets 08:56:05 0° 22° (NNE) 3,385 ? -27.4°
